Location: Cartignies
(50.0929°N, 3.8447°E)
Time: 14:47:51
(UTC+00:00)

Thor Agena Rocket - Pass Details

Date: 12 January 2026
Orbit: 755 x 801 km, 99.1° (Epoch: 16 February)

Event Time Altitude Azimuth Distance (km) Brightness Sun altitude
Rises 16:58:57 0° 163° (SSE) 3,209 6.8 -8.2°
Reaches altitude 10° 17:01:14 10° 164° (SSE) 2,284 6.1 -8.5°
Maximum altitude 17:06:16 86° 253° (WSW) 765 3.6 -9.3°
Drops below altitude 10° 17:11:19 10° 344° (NNW) 2,295 5.9 -10.0°
Sets 17:13:38 0° 345° (NNW) 3,226 6.7 -10.4°
